period_start,C,m1,H,J0,J1,J2,J3,J4,J5,JA,JB,JC,JD,JJ,JK,JN,#
2016-08-07 00:02:54,0.00,0.40,0.00,26.49,30.47,33.34,14.22,46.20,1011.67,2024.01,3293.00,2955.01,3346.32,599.89,586.03,39.85,0000 0000 0000 0000 000000
2016-08-07 00:07:55,0.01,0.40,0.00,26.46,30.47,33.35,14.26,46.08,1011.72,2024.03,3292.93,2955.01,3346.12,600.03,586.30,39.90,0000 0000 0000 0000 000000
2016-08-07 00:12:56,0.06,0.40,0.00,26.46,30.46,33.33,14.27,46.22,1011.72,2024.08,3291.88,2954.52,3345.58,600.35,586.58,39.95,0000 0000 0000 0000 000000
2016-08-07 00:17:58,0.34,0.41,0.00,26.46,30.45,33.30,14.23,46.20,1011.73,2024.07,3285.90,2950.52,3341.28,600.14,586.44,40.00,0000 0000 0000 0000 000000
2016-08-07 00:22:59,0.35,0.43,0.00,26.47,30.45,33.31,14.28,46.25,1011.73,2024.11,3278.17,2945.35,3335.56,599.87,586.11,40.05,0000 0000 0000 0000 000000
2016-08-07 00:28:00,0.27,0.44,0.00,26.46,30.44,33.30,14.22,46.21,1011.73,2024.15,3271.75,2941.18,3330.86,600.02,586.43,40.10,0000 0000 0000 0000 000000
2016-08-07 00:33:01,0.21,0.46,0.00,26.45,30.42,33.29,14.28,46.25,1011.73,2024.19,3266.84,2937.86,3327.32,600.30,586.54,40.15,0000 0000 0000 0000 000000
2016-08-07 00:38:02,0.09,0.46,0.00,26.43,30.42,33.29,14.20,46.13,1011.73,2024.45,3264.71,2936.63,3325.90,599.72,586.23,40.20,0000 0000 0000 0000 000000
2016-08-07 00:43:03,0.04,0.47,0.00,26.44,30.41,33.29,14.19,46.14,1011.73,2024.40,3263.65,2935.96,3325.05,599.74,586.12,40.25,0000 0000 0000 0000 000000
2016-08-07 00:48:05,0.05,0.47,0.00,26.42,30.40,33.27,14.20,46.16,1011.73,2024.53,3262.84,2935.15,3324.28,599.88,586.28,40.30,0000 0000 0000 0000 000000
2016-08-07 00:53:06,0.05,0.47,0.00,26.41,30.40,33.26,14.21,46.18,1011.73,2024.61,3261.97,2934.75,3323.81,600.21,586.58,40.35,0000 0000 0000 0000 000000
2016-08-07 00:58:07,0.04,0.47,0.00,26.41,30.39,33.24,14.24,46.19,1011.73,2024.82,3261.10,2934.05,3323.05,600.09,586.52,40.40,0000 0000 0000 0000 000000
2016-08-07 01:03:08,0.00,0.47,0.00,26.40,30.37,33.24,14.27,46.25,1011.73,2024.78,3260.83,2933.97,3322.97,600.34,586.77,40.45,0000 0000 0000 0000 000000
2016-08-07 01:08:09,0.04,0.48,0.00,26.40,30.37,33.24,14.19,46.17,1011.73,2024.84,3260.14,2933.80,3322.51,599.97,586.57,40.50,0000 0000 0000 0000 000000
2016-08-07 01:13:10,0.02,0.48,0.00,26.37,30.36,33.22,14.29,46.12,1011.74,2024.88,3260.01,2933.26,3322.10,600.13,586.65,40.55,0000 0000 0000 0000 000000
2016-08-07 01:18:12,0.00,0.48,0.00,26.39,30.35,33.23,14.27,46.32,1011.74,2024.94,3260.00,2933.10,3322.02,600.04,586.51,40.60,0000 0000 0000 0000 000000
2016-08-07 01:23:13,0.00,0.48,0.00,26.41,30.35,33.21,14.15,46.13,1011.73,2024.97,3259.97,2933.02,3322.00,599.70,586.07,40.65,0000 0000 0000 0000 000000
2016-08-07 01:28:14,-0.00,0.48,0.00,26.40,30.34,33.17,14.25,46.13,1011.74,2024.98,3259.94,2933.00,3322.00,600.05,586.49,40.71,0000 0000 0000 0000 000000
2016-08-07 01:33:15,0.00,0.48,0.00,26.42,30.32,33.15,14.14,46.02,1011.74,2024.98,3259.93,2933.00,3322.00,599.71,586.12,40.76,0000 0000 0000 0000 000000
2016-08-07 01:38:16,0.00,0.48,0.00,26.41,30.32,33.15,14.23,46.08,1011.74,2024.99,3259.80,2933.00,3322.00,600.57,586.96,40.81,0000 0000 0000 0000 000000
2016-08-07 01:43:17,0.00,0.48,0.00,26.42,30.32,33.12,14.21,46.13,1011.74,2024.99,3259.89,2933.00,3322.00,599.84,586.25,40.86,0000 0000 0000 0000 000000
2016-08-07 01:48:19,0.00,0.48,0.00,26.42,30.31,33.11,14.21,46.18,1011.73,2024.99,3259.68,2933.00,3322.00,600.22,586.59,40.91,0000 0000 0000 0000 000000
2016-08-07 01:53:20,0.00,0.48,0.00,26.40,30.30,33.13,14.21,46.11,1011.73,2025.00,3259.31,2933.00,3321.99,599.72,586.18,40.96,0000 0000 0000 0000 000000
2016-08-07 01:58:21,0.00,0.48,0.00,26.40,30.30,33.08,14.24,46.25,1011.73,2025.00,3259.09,2933.00,3321.98,599.92,586.32,41.01,0000 0000 0000 0000 000000
2016-08-07 02:03:22,0.00,0.48,0.00,26.40,30.30,33.07,14.27,46.12,1011.73,2025.00,3259.01,2933.00,3321.88,600.18,586.66,41.06,0000 0000 0000 0000 000000
2016-08-07 02:08:24,0.00,0.48,0.00,26.42,30.29,33.07,14.21,46.08,1011.74,2025.01,3259.00,2932.99,3321.83,599.50,585.97,41.11,0000 0000 0000 0000 000000
2016-08-07 02:13:25,0.00,0.48,0.00,26.42,30.28,33.07,14.23,46.14,1011.74,2025.02,3259.00,2932.99,3321.87,599.86,586.27,41.16,0000 0000 0000 0000 000000
2016-08-07 02:18:26,0.00,0.48,0.00,26.40,30.27,33.07,14.27,46.22,1011.76,2025.01,3258.99,2932.98,3321.41,600.17,586.74,41.21,0000 0000 0000 0000 000000
2016-08-07 02:23:28,0.00,0.48,0.00,26.41,30.27,33.05,14.26,46.13,1011.79,2025.02,3258.95,2932.96,3321.13,599.84,586.34,41.26,0000 0000 0000 0000 000000
2016-08-07 02:28:30,0.01,0.48,0.00,26.40,30.27,33.01,14.22,46.10,1011.93,2025.03,3258.74,2932.89,3321.06,599.95,586.48,41.31,0000 0000 0000 0000 000000
2016-08-07 02:33:31,0.02,0.48,0.00,26.40,30.27,33.02,14.27,46.21,1011.94,2025.01,3258.12,2932.37,3321.00,599.95,586.50,41.36,0000 0000 0000 0000 000000
2016-08-07 02:38:32,0.01,0.48,0.00,26.41,30.27,33.00,14.21,46.10,1011.95,2025.02,3258.00,2932.09,3321.00,599.85,586.45,41.41,0000 0000 0000 0000 000000
2016-08-07 02:43:33,0.00,0.48,0.00,26.39,30.27,32.99,14.23,46.15,1012.06,2025.02,3258.00,2932.03,3320.99,600.04,586.73,41.46,0000 0000 0000 0000 000000
2016-08-07 02:48:34,0.00,0.48,0.00,26.41,30.27,33.00,14.23,46.17,1012.01,2025.03,3257.99,2932.01,3320.95,599.73,586.22,41.51,0000 0000 0000 0000 000000
2016-08-07 02:53:35,-0.00,0.48,0.00,26.43,30.27,32.97,14.21,46.25,1012.17,2025.02,3257.93,2932.00,3320.92,599.95,586.73,41.56,0000 0000 0000 0000 000000
2016-08-07 02:58:37,0.00,0.48,0.00,26.41,30.26,32.97,14.15,46.12,1012.17,2025.03,3257.91,2932.00,3320.89,599.88,586.51,41.61,0000 0000 0000 0000 000000
2016-08-07 03:03:38,0.00,0.48,0.00,26.40,30.25,32.97,14.21,46.05,1012.17,2025.03,3257.88,2932.00,3320.88,599.95,586.67,41.66,0000 0000 0000 0000 000000
2016-08-07 03:08:39,0.02,0.48,0.00,26.41,30.25,32.96,14.24,46.09,1012.13,2025.05,3257.44,2932.00,3320.50,599.76,586.39,41.72,0000 0000 0000 0000 000000
2016-08-07 03:13:41,0.01,0.48,0.00,26.41,30.25,32.96,14.21,46.18,1012.07,2025.13,3257.42,2932.00,3320.49,599.79,586.39,41.77,0000 0000 0000 0000 000000
2016-08-07 03:18:42,0.00,0.48,0.00,26.42,30.25,32.91,14.24,46.11,1012.07,2025.12,3257.20,2932.00,3320.26,600.08,586.69,41.82,0000 0000 0000 0000 000000
2016-08-07 03:23:43,0.00,0.48,0.00,26.43,30.25,32.92,14.26,46.01,1012.10,2025.06,3257.02,2931.99,3320.04,600.41,586.91,41.87,0000 0000 0000 0000 000000
2016-08-07 03:28:44,0.00,0.48,0.00,26.43,30.25,32.94,14.23,46.09,1011.98,2025.05,3256.99,2931.91,3320.01,600.14,586.70,41.92,0000 0000 0000 0000 000000
2016-08-07 03:33:46,0.01,0.48,0.00,26.41,30.25,32.92,14.29,46.20,1012.15,2025.09,3256.96,2931.72,3319.99,600.55,587.04,41.97,0000 0000 0000 0000 000000
2016-08-07 03:38:47,0.01,0.49,0.00,26.41,30.25,32.94,14.21,46.19,1012.22,2025.05,3256.86,2931.34,3319.98,599.27,585.98,42.02,0000 0000 0000 0000 000000
2016-08-07 03:43:48,0.01,0.49,0.00,26.43,30.25,32.95,14.21,46.11,1012.22,2025.12,3256.69,2931.21,3319.98,599.60,586.23,42.07,0000 0000 0000 0000 000000
2016-08-07 03:48:50,0.02,0.49,0.00,26.42,30.25,32.98,14.24,46.31,1012.22,2025.15,3256.32,2931.12,3319.91,599.97,586.64,42.12,0000 0000 0000 0000 000000
2016-08-07 03:53:51,0.01,0.49,0.00,26.45,30.25,32.95,14.20,46.24,1012.22,2025.09,3256.01,2931.02,3319.36,600.14,586.71,42.17,0000 0000 0000 0000 000000
2016-08-07 03:58:52,0.01,0.49,0.00,26.45,30.26,32.97,14.27,46.21,1012.22,2025.16,3256.00,2931.00,3319.04,600.18,586.84,42.22,0000 0000 0000 0000 000000
2016-08-07 04:03:54,-0.00,0.49,0.00,26.44,30.27,32.93,14.24,46.20,1012.22,2025.12,3255.99,2931.00,3319.01,599.92,586.70,42.27,0000 0000 0000 0000 000000
2016-08-07 04:08:55,0.00,0.49,0.00,26.43,30.27,32.97,14.23,46.22,1012.22,2025.09,3255.90,2930.98,3319.00,600.23,586.95,42.32,0000 0000 0000 0000 000000
2016-08-07 04:13:56,0.01,0.49,0.00,26.45,30.27,32.99,14.24,46.14,1012.22,2025.05,3255.43,2930.96,3318.98,600.10,586.70,42.37,0000 0000 0000 0000 000000
2016-08-07 04:18:58,0.01,0.49,0.00,26.45,30.27,32.96,14.22,46.20,1012.22,2025.08,3255.07,2930.88,3318.95,599.79,586.49,42.42,0000 0000 0000 0000 000000
2016-08-07 04:23:59,0.00,0.49,0.00,26.45,30.27,32.96,14.25,46.21,1012.22,2025.09,3255.03,2930.74,3318.89,599.87,586.61,42.47,0000 0000 0000 0000 000000
2016-08-07 04:29:00,0.02,0.49,0.00,26.45,30.27,32.98,14.24,46.13,1012.22,2025.10,3255.00,2930.32,3318.50,599.83,586.46,42.52,0000 0000 0000 0000 000000
2016-08-07 04:34:02,0.00,0.49,0.00,26.45,30.27,32.96,14.31,46.20,1012.22,2025.05,3254.99,2930.17,3318.15,600.46,587.07,42.58,0000 0000 0000 0000 000000
2016-08-07 04:39:03,0.00,0.49,0.00,26.45,30.27,32.98,14.26,46.02,1012.17,2025.10,3254.96,2930.09,3318.05,600.08,586.62,42.63,0000 0000 0000 0000 000000
2016-08-07 04:44:04,0.01,0.49,0.00,26.45,30.27,32.95,14.23,46.15,1012.15,2025.19,3254.91,2930.04,3318.03,600.06,586.64,42.68,0000 0000 0000 0000 000000
2016-08-07 04:49:06,0.01,0.49,0.00,26.48,30.27,32.96,14.22,46.06,1012.14,2025.31,3254.86,2930.06,3318.04,600.01,586.48,42.73,0000 0000 0000 0000 000000
2016-08-07 04:54:07,-0.00,0.49,0.00,26.48,30.27,32.97,14.26,46.15,1012.18,2025.21,3254.31,2930.00,3318.00,600.12,586.64,42.78,0000 0000 0000 0000 000000
2016-08-07 04:59:08,0.01,0.49,0.00,26.48,30.27,32.97,14.25,46.13,1012.20,2025.19,3254.02,2930.00,3318.00,600.07,586.59,42.83,0000 0000 0000 0000 000000
2016-08-07 05:04:09,-0.01,0.49,0.00,26.49,30.27,32.96,14.28,46.34,1012.17,2025.25,3254.00,2930.00,3317.97,600.15,586.62,42.88,0000 0000 0000 0000 000000
2016-08-07 05:09:11,0.02,0.49,0.00,26.49,30.28,32.96,14.26,46.17,1012.15,2025.24,3254.00,2929.99,3317.91,599.99,586.51,42.93,0000 0000 0000 0000 000000
2016-08-07 05:14:12,-0.00,0.49,0.00,26.49,30.29,32.95,14.21,46.13,1012.22,2025.22,3253.96,2929.98,3317.60,599.99,586.53,42.98,0000 0000 0000 0000 000000
2016-08-07 05:19:14,0.01,0.49,0.00,26.49,30.30,32.95,14.24,46.19,1012.22,2025.18,3253.70,2929.92,3317.18,600.22,586.78,43.03,0000 0000 0000 0000 000000
2016-08-07 05:24:15,0.02,0.49,0.00,26.50,30.30,33.02,14.24,46.07,1012.22,2025.25,3253.28,2929.83,3317.05,600.20,586.78,43.08,0000 0000 0000 0000 000000
2016-08-07 05:29:17,0.01,0.49,0.00,26.49,30.30,32.98,14.24,46.05,1012.22,2025.11,3253.05,2929.40,3317.00,600.00,586.48,43.13,0000 0000 0000 0000 000000
2016-08-07 05:34:18,-0.00,0.49,0.00,26.50,30.30,33.01,14.23,46.29,1012.22,2025.12,3253.00,2929.15,3317.00,599.86,586.39,43.18,0000 0000 0000 0000 000000
2016-08-07 05:39:19,0.00,0.49,0.00,26.52,30.30,33.02,14.21,46.16,1012.22,2025.07,3253.00,2929.04,3317.00,599.95,586.48,43.23,0000 0000 0000 0000 000000
2016-08-07 05:44:20,0.00,0.49,0.00,26.53,30.31,32.97,14.14,46.07,1012.22,2025.05,3252.98,2929.01,3316.95,599.80,586.30,43.28,0000 0000 0000 0000 000000
2016-08-07 05:49:21,0.01,0.49,0.00,26.55,30.32,32.99,14.22,46.11,1012.22,2025.07,3252.91,2929.00,3316.85,600.01,586.52,43.33,0000 0000 0000 0000 000000
2016-08-07 05:54:23,0.01,0.49,0.00,26.56,30.32,33.00,14.24,46.32,1012.21,2025.06,3252.51,2929.00,3316.47,600.13,586.55,43.38,0000 0000 0000 0000 000000
2016-08-07 05:59:24,0.00,0.50,0.00,26.58,30.32,32.99,14.19,46.18,1012.18,2025.03,3252.08,2928.99,3316.07,600.40,586.71,43.43,0000 0000 0000 0000 000000
2016-08-07 06:04:25,0.00,0.50,0.00,26.59,30.33,32.99,14.25,46.25,1012.20,2025.03,3252.02,2928.97,3316.01,600.32,586.69,43.48,0000 0000 0000 0000 000000
2016-08-07 06:09:26,-0.00,0.50,0.00,26.60,30.35,32.95,14.20,46.22,1012.22,2025.01,3252.00,2928.91,3316.00,599.50,585.87,43.54,0000 0000 0000 0000 000000
2016-08-07 06:14:28,0.01,0.50,0.00,26.62,30.35,32.96,14.19,46.20,1012.22,2025.01,3251.98,2928.62,3315.99,600.02,586.31,43.59,0000 0000 0000 0000 000000
2016-08-07 06:19:29,0.01,0.50,0.00,26.64,30.35,32.98,14.28,46.26,1012.22,2025.01,3251.79,2928.19,3315.96,600.04,586.40,43.64,0000 0000 0000 0000 000000
2016-08-07 06:24:31,0.01,0.50,0.00,26.65,30.35,32.96,14.20,46.25,1012.22,2025.00,3251.35,2928.03,3315.79,599.98,586.45,43.69,0000 0000 0000 0000 000000
2016-08-07 06:29:32,0.01,0.50,0.00,26.65,30.37,32.91,14.23,46.23,1012.22,2025.00,3251.06,2928.00,3315.36,599.93,586.17,43.74,0000 0000 0000 0000 000000
2016-08-07 06:34:33,0.00,0.50,0.00,26.66,30.37,32.91,14.31,46.19,1012.22,2025.00,3251.00,2928.00,3315.02,600.27,586.51,43.79,0000 0000 0000 0000 000000
2016-08-07 06:39:34,0.00,0.50,0.00,26.69,30.37,32.94,14.16,46.15,1012.22,2025.00,3250.99,2928.00,3315.00,599.86,586.09,43.84,0000 0000 0000 0000 000000
2016-08-07 06:44:35,0.01,0.50,0.00,26.72,30.40,32.94,14.17,46.22,1012.22,2025.00,3250.73,2927.96,3314.98,600.14,586.26,43.89,0000 0000 0000 0000 000000
2016-08-07 06:49:37,0.01,0.50,0.00,26.74,30.40,33.00,14.28,46.33,1012.22,2025.00,3250.32,2927.78,3314.85,600.37,586.40,43.94,0000 0000 0000 0000 000000
2016-08-07 06:54:38,0.02,0.50,0.00,26.75,30.41,32.95,14.19,46.17,1012.19,2025.00,3250.08,2927.41,3314.45,600.27,586.33,43.99,0000 0000 0000 0000 000000
2016-08-07 06:59:39,0.01,0.50,0.00,26.76,30.42,32.92,14.22,46.25,1012.21,2024.99,3250.02,2927.11,3314.13,599.81,585.82,44.04,0000 0000 0000 0000 000000
2016-08-07 07:04:41,-0.00,0.50,0.00,26.81,30.45,32.95,14.20,46.30,1012.22,2024.97,3250.00,2927.02,3314.01,600.29,586.21,44.09,0000 0000 0000 0000 000000
2016-08-07 07:09:42,0.00,0.50,0.00,26.82,30.46,32.98,14.28,46.23,1012.21,2024.96,3249.98,2927.00,3314.00,600.21,586.10,44.14,0000 0000 0000 0000 000000
2016-08-07 07:14:44,0.00,0.50,0.00,26.86,30.47,32.97,14.15,46.19,1012.22,2024.95,3249.75,2926.97,3313.92,599.73,585.51,44.19,0000 0000 0000 0000 000000
2016-08-07 07:19:45,0.01,0.50,0.00,26.89,30.50,33.01,14.20,46.18,1012.22,2024.78,3249.24,2926.66,3313.45,600.01,585.77,44.24,0000 0000 0000 0000 000000
2016-08-07 07:24:46,0.01,0.50,0.00,26.90,30.52,32.99,14.17,46.25,1012.21,2024.58,3249.00,2926.12,3313.02,599.91,585.71,44.29,0000 0000 0000 0000 000000
2016-08-07 07:29:48,-0.03,0.50,0.00,26.94,30.54,33.01,14.22,46.32,1012.21,2024.21,3248.96,2926.01,3312.98,600.16,585.77,44.34,0000 0000 0000 0000 000000
2016-08-07 07:34:49,0.00,0.50,0.00,26.96,30.56,33.05,14.20,46.31,1012.22,2024.02,3248.58,2925.98,3312.78,599.85,585.59,44.39,0000 0000 0000 0000 000000
2016-08-07 07:39:51,0.02,0.50,0.00,27.00,30.59,33.08,14.15,46.24,1012.22,2024.02,3248.05,2925.89,3312.11,599.89,585.48,44.45,0000 0000 0000 0000 000000
2016-08-07 07:44:52,0.01,0.50,0.00,27.02,30.61,33.10,14.25,46.41,1012.22,2024.00,3248.00,2925.29,3312.00,600.09,585.53,44.50,0000 0000 0000 0000 000000
2016-08-07 07:49:53,0.00,0.50,0.00,27.05,30.63,33.11,14.12,46.34,1012.22,2024.00,3247.87,2925.01,3311.98,599.65,585.13,44.55,0000 0000 0000 0000 000000
2016-08-07 07:54:54,0.02,0.50,0.00,27.10,30.66,33.11,14.23,46.33,1012.22,2024.00,3247.21,2925.00,3311.47,600.07,585.49,44.60,0000 0000 0000 0000 000000
2016-08-07 07:59:56,0.00,0.50,0.00,27.13,30.68,33.13,14.22,46.46,1012.23,2023.99,3247.00,2924.91,3311.01,600.06,585.32,44.65,0000 0000 0000 0000 000000
2016-08-07 08:04:57,0.02,0.51,0.00,27.16,30.70,33.15,14.19,46.32,1012.24,2023.96,3246.88,2924.31,3310.98,600.15,585.40,44.70,0000 0000 0000 0000 000000
2016-08-07 08:09:59,0.01,0.51,0.00,27.20,30.73,33.17,14.17,46.31,1012.24,2023.88,3246.19,2924.04,3310.52,599.73,584.99,44.75,0000 0000 0000 0000 000000
2016-08-07 08:15:00,-0.01,0.51,0.00,27.22,30.75,33.19,14.18,46.41,1012.23,2023.76,3246.00,2924.00,3310.04,600.01,585.18,44.80,0000 0000 0000 0000 000000
2016-08-07 08:20:01,-0.02,0.51,0.00,27.23,30.77,33.22,14.21,46.33,1012.24,2023.32,3245.56,2923.84,3309.94,600.27,585.38,44.85,0000 0000 0000 0000 000000
2016-08-07 08:25:02,0.02,0.51,0.00,27.25,30.80,33.22,14.26,46.37,1012.24,2023.05,3245.01,2923.14,3309.19,600.27,585.21,44.90,0000 0000 0000 0000 000000
2016-08-07 08:30:03,0.00,0.51,0.00,27.27,30.82,33.29,14.19,46.20,1012.27,2023.02,3245.00,2923.01,3309.01,600.13,585.17,44.95,0000 0000 0000 0000 000000
2016-08-07 08:35:04,0.01,0.51,0.00,27.28,30.85,33.31,14.17,46.15,1012.33,2023.00,3244.59,2922.99,3308.98,600.10,585.24,45.00,0000 0000 0000 0000 000000
2016-08-07 08:40:06,0.01,0.51,0.00,27.30,30.87,33.32,14.19,46.29,1012.52,2023.00,3244.04,2922.92,3308.65,600.09,585.08,45.05,0000 0000 0000 0000 000000
2016-08-07 08:45:07,0.03,0.51,0.00,27.33,30.88,33.32,14.07,46.13,1012.67,2023.00,3243.97,2922.18,3308.02,599.12,584.35,45.10,0000 0000 0000 0000 000000
2016-08-07 08:50:09,0.01,0.51,0.00,27.36,30.90,33.33,14.20,46.30,1012.71,2022.98,3243.45,2922.00,3308.00,600.11,585.17,45.15,0000 0000 0000 0000 000000
2016-08-07 08:55:10,0.01,0.51,0.00,27.36,30.92,33.37,14.15,46.22,1012.71,2022.96,3242.99,2921.99,3307.60,599.75,584.86,45.20,0000 0000 0000 0000 000000
2016-08-07 09:00:11,0.01,0.51,0.00,27.38,30.94,33.40,14.18,46.34,1012.71,2022.96,3242.68,2921.95,3307.06,600.13,585.24,45.25,0000 0000 0000 0000 000000
2016-08-07 09:05:12,0.02,0.51,0.00,27.39,30.95,33.40,14.12,46.10,1012.71,2022.89,3242.17,2921.44,3306.99,599.61,584.78,45.30,0000 0000 0000 0000 000000
2016-08-07 09:10:14,-0.01,0.51,0.00,27.40,30.97,33.43,14.16,46.23,1012.72,2022.73,3242.00,2921.04,3306.91,600.11,585.10,45.35,0000 0000 0000 0000 000000
2016-08-07 09:15:15,-0.01,0.51,0.00,27.42,30.98,33.41,14.13,46.13,1012.72,2022.43,3241.84,2921.00,3306.29,599.59,584.66,45.40,0000 0000 0000 0000 000000
2016-08-07 09:20:16,-0.00,0.51,0.00,27.44,31.00,33.44,14.23,46.16,1012.73,2022.25,3241.13,2920.98,3306.02,600.21,585.17,45.46,0000 0000 0000 0000 000000
2016-08-07 09:25:18,-0.01,0.51,0.00,27.45,31.01,33.45,14.21,46.24,1012.72,2022.05,3241.01,2920.93,3306.00,600.28,585.25,45.51,0000 0000 0000 0000 000000
2016-08-07 09:30:19,0.01,0.51,0.00,27.48,31.02,33.46,14.18,46.17,1012.74,2022.05,3240.99,2920.71,3305.97,600.18,585.13,45.56,0000 0000 0000 0000 000000
2016-08-07 09:35:20,0.01,0.51,0.00,27.50,31.04,33.49,14.16,46.05,1012.74,2022.03,3240.93,2920.13,3305.69,600.11,585.03,45.61,0000 0000 0000 0000 000000
2016-08-07 09:40:21,0.01,0.51,0.00,27.51,31.05,33.50,14.13,46.13,1012.73,2022.02,3240.78,2920.04,3305.25,600.08,584.83,45.66,0000 0000 0000 0000 000000
2016-08-07 09:45:23,0.01,0.51,0.00,27.52,31.07,33.52,14.20,46.30,1012.73,2022.00,3240.12,2920.00,3305.01,600.26,585.10,45.71,0000 0000 0000 0000 000000
2016-08-07 09:50:24,0.00,0.51,0.00,27.54,31.09,33.49,14.21,46.09,1012.73,2022.00,3240.00,2920.00,3305.00,599.99,584.77,45.76,0000 0000 0000 0000 000000
2016-08-07 09:55:25,0.00,0.51,0.00,27.56,31.10,33.52,14.24,46.33,1012.72,2022.00,3239.96,2919.97,3304.91,600.53,585.26,45.81,0000 0000 0000 0000 000000
2016-08-07 10:00:26,0.02,0.51,0.00,27.57,31.11,33.54,14.18,46.21,1012.72,2022.00,3239.62,2919.73,3304.42,600.19,584.93,45.86,0000 0000 0000 0000 000000
2016-08-07 10:05:27,0.02,0.52,0.00,27.58,31.12,33.56,14.12,46.25,1012.72,2021.99,3239.05,2919.11,3304.02,599.93,584.63,45.91,0000 0000 0000 0000 000000
2016-08-07 10:10:29,0.00,0.52,0.00,27.59,31.14,33.59,14.18,46.21,1012.73,2021.97,3238.99,2919.00,3304.00,599.87,584.50,45.96,0000 0000 0000 0000 000000
2016-08-07 10:15:30,0.00,0.52,0.00,27.61,31.15,33.58,14.15,46.02,1012.73,2021.97,3238.92,2919.00,3303.93,600.02,584.70,46.01,0000 0000 0000 0000 000000
2016-08-07 10:20:31,0.01,0.52,0.00,27.63,31.16,33.61,14.24,46.09,1012.75,2021.96,3238.33,2918.99,3303.54,599.72,584.34,46.06,0000 0000 0000 0000 000000
2016-08-07 10:25:33,0.01,0.52,0.00,27.62,31.17,33.61,14.16,46.12,1012.72,2021.93,3238.03,2918.92,3303.06,600.29,584.90,46.11,0000 0000 0000 0000 000000
2016-08-07 10:30:34,-0.00,0.52,0.00,27.64,31.19,33.62,14.11,46.12,1012.71,2021.77,3237.99,2918.45,3303.00,599.83,584.56,46.16,0000 0000 0000 0000 000000
2016-08-07 10:35:35,0.02,0.52,0.00,27.64,31.20,33.63,14.08,46.04,1012.71,2021.69,3237.65,2918.06,3302.94,599.94,584.56,46.21,0000 0000 0000 0000 000000
2016-08-07 10:40:37,-0.01,0.52,0.00,27.64,31.21,33.64,14.17,46.23,1012.71,2021.41,3237.08,2918.01,3302.56,599.96,584.55,46.26,0000 0000 0000 0000 000000
2016-08-07 10:45:38,-0.01,0.52,0.00,27.65,31.22,33.64,14.13,46.13,1012.71,2021.24,3237.02,2918.00,3302.16,599.67,584.25,46.31,0000 0000 0000 0000 000000
2016-08-07 10:50:39,-0.00,0.52,0.00,27.67,31.24,33.68,14.17,46.11,1012.73,2021.27,3236.98,2917.99,3302.02,599.86,584.38,46.36,0000 0000 0000 0000 000000
2016-08-07 10:55:40,0.00,0.52,0.00,27.67,31.25,33.69,14.21,46.08,1012.75,2021.15,3236.89,2917.96,3302.00,600.14,584.63,46.41,0000 0000 0000 0000 000000
2016-08-07 11:00:42,0.01,0.52,0.00,27.66,31.26,33.70,14.08,46.08,1012.75,2021.13,3236.45,2917.75,3301.98,599.50,584.09,46.46,0000 0000 0000 0000 000000
2016-08-07 11:05:43,0.01,0.52,0.00,27.67,31.27,33.72,14.18,46.17,1012.74,2021.04,3236.07,2917.17,3301.59,600.33,584.87,46.51,0000 0000 0000 0000 000000
2016-08-07 11:10:44,0.01,0.52,0.00,27.67,31.28,33.73,14.18,46.02,1012.73,2021.02,3236.00,2917.02,3301.07,599.86,584.42,46.57,0000 0000 0000 0000 000000
2016-08-07 11:15:46,0.00,0.52,0.00,27.69,31.30,33.73,14.20,46.08,1012.73,2021.00,3235.96,2917.00,3301.00,600.00,584.62,46.62,0000 0000 0000 0000 000000
2016-08-07 11:20:47,0.00,0.52,0.00,27.69,31.30,33.76,14.11,46.00,1012.75,2021.00,3235.67,2917.00,3301.00,599.99,584.45,46.67,0000 0000 0000 0000 000000
2016-08-07 11:25:48,0.02,0.52,0.00,27.67,31.32,33.78,14.10,46.02,1012.85,2021.00,3235.10,2916.92,3300.81,599.66,584.31,46.72,0000 0000 0000 0000 000000
2016-08-07 11:30:50,0.02,0.52,0.00,27.68,31.32,33.80,14.17,46.10,1013.02,2021.00,3234.99,2916.54,3300.26,599.72,584.59,46.77,0000 0000 0000 0000 000000
2016-08-07 11:35:51,0.01,0.52,0.00,27.68,31.33,33.82,14.12,45.98,1012.89,2021.00,3234.86,2916.22,3300.05,599.40,584.16,46.82,0000 0000 0000 0000 000000
2016-08-07 11:40:53,0.02,0.52,0.00,27.68,31.35,33.84,14.19,46.16,1013.03,2020.99,3233.95,2915.99,3299.70,599.87,584.57,46.87,0000 0000 0000 0000 000000
2016-08-07 11:45:54,0.05,0.53,0.00,27.69,31.35,33.90,14.10,46.17,1013.03,2020.99,3232.90,2915.28,3298.97,599.88,584.60,46.92,0000 0000 0000 0000 000000
2016-08-07 11:50:55,0.04,0.53,0.00,27.68,31.37,33.89,14.20,46.13,1013.07,2020.97,3231.75,2914.81,3298.12,600.00,584.65,46.97,0000 0000 0000 0000 000000
2016-08-07 11:55:56,0.03,0.53,0.00,27.68,31.37,33.89,14.21,46.18,1013.10,2020.97,3230.94,2914.09,3297.78,600.05,584.87,47.02,0000 0000 0000 0000 000000
2016-08-07 12:00:58,0.02,0.53,0.00,27.69,31.37,33.93,14.18,46.27,1013.12,2020.95,3230.16,2913.97,3297.11,599.78,584.50,47.07,0000 0000 0000 0000 000000
2016-08-07 12:05:59,0.02,0.53,0.00,27.68,31.38,33.96,14.21,46.19,1013.13,2020.94,3229.75,2913.54,3296.97,600.22,584.94,47.12,0000 0000 0000 0000 000000
2016-08-07 12:11:01,0.02,0.53,0.00,27.68,31.40,33.95,14.18,46.07,1013.17,2020.90,3229.08,2913.04,3296.62,600.21,584.93,47.17,0000 0000 0000 0000 000000
2016-08-07 12:16:02,0.00,0.53,0.00,27.66,31.40,33.94,14.20,46.12,1013.11,2020.80,3229.00,2913.00,3296.10,599.81,584.59,47.22,0000 0000 0000 0000 000000
2016-08-07 12:21:03,-0.01,0.53,0.00,27.68,31.40,33.97,14.15,46.05,1013.05,2020.66,3228.80,2912.99,3296.00,600.38,585.03,47.27,0000 0000 0000 0000 000000
2016-08-07 12:26:04,-0.00,0.53,0.00,27.67,31.41,34.04,14.24,46.28,1013.10,2020.58,3228.12,2912.95,3295.99,600.28,584.96,47.32,0000 0000 0000 0000 000000
2016-08-07 12:31:06,0.01,0.53,0.00,27.66,31.42,34.00,14.12,46.13,1013.03,2020.37,3227.99,2912.52,3295.61,599.83,584.69,47.37,0000 0000 0000 0000 000000
2016-08-07 12:36:07,0.02,0.53,0.00,27.65,31.42,34.02,14.14,46.28,1013.11,2020.38,3227.50,2912.13,3295.19,599.56,584.37,47.42,0000 0000 0000 0000 000000
2016-08-07 12:41:08,-0.01,0.53,0.00,27.65,31.42,34.05,14.20,46.24,1013.04,2020.16,3227.01,2912.00,3295.00,600.07,584.94,47.47,0000 0000 0000 0000 000000
2016-08-07 12:46:09,-0.00,0.53,0.00,27.66,31.42,34.09,14.21,46.27,1012.88,2020.15,3226.88,2911.99,3294.79,599.95,584.71,47.52,0000 0000 0000 0000 000000
2016-08-07 12:51:11,0.03,0.54,0.00,27.65,31.42,34.05,14.23,46.26,1012.80,2020.13,3226.18,2911.94,3294.20,599.95,584.63,47.58,0000 0000 0000 0000 000000
2016-08-07 12:56:12,0.01,0.54,0.00,27.64,31.43,34.06,14.21,46.17,1013.00,2020.05,3226.00,2911.48,3294.00,600.00,584.76,47.63,0000 0000 0000 0000 000000